FENGYUN 1C DEB, 35156

Orbit data source: Space-Track

FENGYUN 1C DEB, 35156 is space debris in SSO originally from a launch on Mon, 10 May 1999 UTC launched from the Taiyaun Space Center, China (TSC). Fengyun 1C debris stems from the Chinese weather satellite Fengyun-1C, which was intentionally destroyed by a Chinese anti-satellite missile in 2007. This event dramatically increased the amount of space debris, with thousands of trackable fragments posing hazards to satellites and human spaceflight. The Fengyun 1C debris cloud has become a focal point in discussions about space sustainability and the need for international regulations to prevent the creation of new debris.

Loading next visibility...
Identifier
35156, 1999-025DML
Orbit
SSO
Country
Flag of CNCN / PRC
Related business
Manufacturer
Unknown
Mission
Spacecraft
Bus & Motor
Unknown
Mass
Unknown
Launch date (UTC)
1999-05-10 (27 years ago)
Launch vehicle
Unknown
Launch site
Taiyaun Space Center, China (TSC)
Object type
Payload
Rocket body
Debris
Shape & HBR
Unknown shape, 0.1 m
Radar Cross Section
Small (<0.1 m²)

Expand to show TLE details & history
Last TLE update: 2 days ago

TLE from 2 days ago
0 FENGYUN 1C DEB
1 35156U 99025DML 26252.75182978  .00000331  00000-0  20701-3 0  9999
2 35156  98.7783 237.5786 0037510 101.4945 259.0442 14.10913601678656
Epoch: 2026-09-09T18:02Z
TLE epoch observation values (Epoch: 2026-09-09T18:02:38.092Z)
Latitude
0.00001°
Longitude
-21.87951°
Altitude
864.403 km
Speed
7.418 km/s
True Right ascension
15h 50m 18s
True Declination
0° 00' 00"
Sunlit
Object was in daylight at epoch
Visualization orbit readout
Latitude
Unknown
Longitude
Unknown
Altitude
Unknown
Speed
Unknown
Apparent Right ascension
Unknown
Apparent Declination
Unknown
Sunlit
N/A
Visualization observer readout
Local Sidereal Time
06:48:54
Azimuth
Unknown
Elevation
Unknown
Doppler factor
Unknown
Orbital elements
Apogee altitude
880.547 km
Perigee altitude
826.295 km
Semi-major axis
7,231.558 km
Eccentricity
0.00375
Inclination
98.7783°
RAAN
237.5786°
Arg. of periapsis
101.4945°
True anomaly
258.62258°
Mean anomaly
259.0442°
Eccentric anomaly
258.83335°
Mean motion
3.52936 °/min
Orbital period
102 mins
BSTAR
0.00020701
Loading maneuver chart data...
Computing Atmospheric mass density...
Loading historical data...
Loading historical data...
Loading historical data...
Loading historical data...
Loading historical data...
Loading historical data...
Loading historical data...

Documentation

Showing up to 5 results
|